Regional Weather Roundup
Issued by NWS

Home | Current Version | Previous Version | Graphics & Text | Print | Product List | Glossary On
Versions: 1 2 3 4 5 6 7 8 9 10 11 12 13 14 15 16 17 18 19 20 21 22 23 24 25 26 27 28 29 30 31 32 33 34 35 36 37 38 39 40 41 42 43 44 45 46 47 48 49 50
000
ASUS43 KMKX 181211
RWRWI

WISCONSIN REGIONAL WEATHER ROUNDUP
NATIONAL WEATHER SERVICE MILWAUKEE/SULLIVAN WI
600 AM CST THU DEC 18 2014

NOTE: "FAIR" INDICATES FEW OR NO CLOUDS BELOW 12,000 FEET WITH NO
SIGNIFICANT WEATHER AND/OR OBSTRUCTIONS TO VISIBILITY.

WIZ001-002-006>008-014>016-023>028-181300-
NORTHWEST WISCONSIN

CITY           SKY/WX    TMP DP  RH WIND       PRES   REMARKS
SUPERIOR ARPT  CLOUDY    21  19  91 CALM      30.32S
6HR MIN TEMP:  19; 6HR MAX TEMP:  21;

ASHLAND        CLOUDY    23  20  88 CALM      30.31F
6HR MIN TEMP:  22; 6HR MAX TEMP:  24;

HAYWARD        CLOUDY    21  17  84 NE3       30.28S
6HR MIN TEMP:  19; 6HR MAX TEMP:  21;

SIREN          FLURRIES  19  16  89 CALM      30.30F
6HR MIN TEMP:  17; 6HR MAX TEMP:  19;

CUMBERLAND     CLOUDY    21  18  86 NE5       30.27F WCI  15
RICE LAKE      CLOUDY    22  19  85 N5        30.29F WCI  16
6HR MIN TEMP:  20; 6HR MAX TEMP:  22;

CHETEK         CLOUDY    21  19  89 CALM      30.28F
6HR MIN TEMP:  19; 6HR MAX TEMP:  21;

LADYSMITH      CLOUDY    23  19  87 CALM      30.29S
6HR MIN TEMP:  21; 6HR MAX TEMP:  23;

EAU CLAIRE     CLOUDY    22  18  85 NE3       30.27F
6HR MIN TEMP:  19; 6HR MAX TEMP:  22;

MENOMONIE      CLOUDY    22  19  85 N5        30.28F WCI  16
6HR MIN TEMP:  19; 6HR MAX TEMP:  22;

NEW RICHMOND   CLOUDY    20  18  91 NE5       30.29S WCI  14
6HR MIN TEMP:  17; 6HR MAX TEMP:  20;

OSCEOLA        CLOUDY    19  17  92 CALM      30.32F
6HR MIN TEMP:  15; 6HR MAX TEMP:  19;

$$

WIZ003>005-009-010-017-018-181300-
NORTH CENTRAL WISCONSIN

CITY           SKY/WX    TMP DP  RH WIND       PRES   REMARKS
MANITOWISH WTR CLOUDY    19  17  93 NE5       30.24S WCI  12
6HR MIN TEMP:  18; 6HR MAX TEMP:  21;

ARBOR VITAE    CLOUDY    22  19  89 NE5       30.23S WCI  15
6HR MIN TEMP:  22; 6HR MAX TEMP:  23;

WOODRUFF       CLOUDY    22  19  89 NE5       30.23S WCI  15
6HR MIN TEMP:  22; 6HR MAX TEMP:  23;

RHINELANDER    CLOUDY    19  17  92 E7        30.23S WCI  10
6HR MIN TEMP:  19; 6HR MAX TEMP:  21;

EAGLE RIVER    CLOUDY    20  18  92 NE8       30.23S WCI  10
6HR MIN TEMP:  20; 6HR MAX TEMP:  22;

LAND O LAKES   CLOUDY    21  18  91 NE3       30.24S
6HR MIN TEMP:  20; 6HR MAX TEMP:  21;

PHILLIPS       CLOUDY    21  19  90 N3        30.24S
6HR MIN TEMP:  20; 6HR MAX TEMP:  21;

TOMAHAWK       CLOUDY    21  17  86 CALM      30.25S
6HR MIN TEMP:  21; 6HR MAX TEMP:  22;

MEDFORD        CLOUDY    21  18  90 N6        30.23F WCI  13
6HR MIN TEMP:  20; 6HR MAX TEMP:  22;

MERRILL        CLOUDY    23  20  87 NE5       30.24F WCI  17
6HR MIN TEMP:  23; 6HR MAX TEMP:  23;

$$

WIZ029-030-035-036-043>047-181300-
CENTRAL WISCONSIN

CITY           SKY/WX    TMP DP  RH WIND       PRES   REMARKS
WAUSAU         CLOUDY    24  19  81 N3        30.23F
6HR MIN TEMP:  23; 6HR MAX TEMP:  24;

MOSINEE        CLOUDY    23  21  93 NE5       30.25F WCI  17
MARSHFIELD     CLOUDY    22  19  89 NW7       30.24F WCI  13
6HR MIN TEMP:  20; 6HR MAX TEMP:  22;

STEVENS POINT  CLOUDY    23  18  83 NE3       30.25F
6HR MIN TEMP:  20; 6HR MAX TEMP:  23;

WAUPACA        CLOUDY    27  21  79 CALM      30.26F
6HR MIN TEMP:  24; 6HR MAX TEMP:  27;

WAUTOMA        CLOUDY    23  19  85 N6        30.27F WCI  16
6HR MIN TEMP:  21; 6HR MAX TEMP:  23;

WISC RAPIDS    CLOUDY    22  17  81 W5        30.27F WCI  16
6HR MIN TEMP:  19; 6HR MAX TEMP:  22;

CAMP DOUGLAS   CLOUDY    21  21  99 N5        30.26F WCI  14
6HR MIN TEMP:  19; 6HR MAX TEMP:  21;

$$

WIZ011>013-019>022-031-037>040-048>050-181300-
NORTHEAST WISCONSIN

CITY           SKY/WX    TMP DP  RH WIND       PRES   REMARKS
ANTIGO         CLOUDY    21  19  89 NE9       30.22S WCI  11
6HR MIN TEMP:  21; 6HR MAX TEMP:  22;

SHAWANO        CLOUDY    28  22  78 NE7       30.26F WCI  21
6HR MIN TEMP:  28; 6HR MAX TEMP:  28;

OCONTO         CLOUDY    26  21  80 N5        30.27R WCI  20
6HR MIN TEMP:  26; 6HR MAX TEMP:  27;

STURGEON BAY   CLOUDY    27  19  74 N15       30.26R WCI  15
6HR MIN TEMP:  27; 6HR MAX TEMP:  28;

GREEN BAY      CLOUDY    27  22  81 N9        30.26S WCI  18
6HR MIN TEMP:  27; 6HR MAX TEMP:  28;

MANITOWOC      CLOUDY    28  24  85 N9        30.25S WCI  19
6HR MIN TEMP:  25; 6HR MAX TEMP:  28;

APPLETON       CLOUDY    25  21  86 VRB6      30.25S WCI  18
CLINTONVILLE   CLOUDY    28  21  74 NE5       30.26S WCI  23
OSHKOSH        CLOUDY    25  19  78 NW6       30.25F WCI  18
6HR MIN TEMP:  22; 6HR MAX TEMP:  25;

$$

WIZ032>034-041-042-053>061-181300-
SOUTHWEST WISCONSIN

CITY           SKY/WX    TMP DP  RH WIND       PRES   REMARKS
LA CROSSE      CLOUDY    21  15  78 CALM      30.29F
6HR MIN TEMP:  17; 6HR MAX TEMP:  21;

SPARTA         CLOUDY    21  16  81 CALM      30.28S
6HR MIN TEMP:  19; 6HR MAX TEMP:  21;

VIROQUA        CLOUDY    18  17  95 N3        30.24R
6HR MIN TEMP:  15; 6HR MAX TEMP:  18;

BOSCOBEL       CLEAR     13   9  84 CALM      30.30R
6HR MIN TEMP:  12; 6HR MAX TEMP:  15;

PRAIRIE DU CHI PTCLDY    15  12  88 CALM      30.30S
6HR MIN TEMP:  15; 6HR MAX TEMP:  18;

PLATTEVILLE    PTCLDY    14  12  92 CALM      30.28S
6HR MIN TEMP:  13; 6HR MAX TEMP:  17;

$$

WIZ056-057-062-063-064-067-068-181300-
SOUTH CENTRAL WISCONSIN

CITY           SKY/WX    TMP DP  RH WIND       PRES   REMARKS
REEDSBURG      CLOUDY    22  17  81 CALM      30.25F
6HR MIN TEMP:  18; 6HR MAX TEMP:  22;

BARABOO/DELLS  CLOUDY    21  16  79 CALM      30.24F
6HR MIN TEMP:  18; 6HR MAX TEMP:  21;

LONE ROCK      MOCLDY    19  12  74 CALM      30.29R
6HR MIN TEMP:  17; 6HR MAX TEMP:  21;

MINERAL POINT  CLEAR     18  14  86 CALM      30.25R
MADISON        CLOUDY    18  14  84 CALM      30.25F
6HR MIN TEMP:  15; 6HR MAX TEMP:  18;

MIDDLETON      CLOUDY    19  15  84 W3        30.25S
6HR MIN TEMP:  17; 6HR MAX TEMP:  19;

WATERTOWN      CLOUDY    22  19  89 N5        30.24S WCI  16
6HR MIN TEMP:  17; 6HR MAX TEMP:  22;

MONROE         CLEAR     18  14  86 NW5       30.24S WCI  11
JANESVILLE     NOT AVBL
$$

WIZ051-052-058>065-066-070>072-181300-
SOUTHEAST WISCONSIN

CITY           SKY/WX    TMP DP  RH WIND       PRES   REMARKS
MILWAUKEE      CLEAR     20  15  81 NW6       30.24F WCI  12
6HR MIN TEMP:  19; 6HR MAX TEMP:  21;

WAUKESHA       MOCLDY    18  16  93 W5        30.24F WCI  11
MILWAUKEE/TIMM MOCLDY    21  18  86 N6        30.25F WCI  14
RACINE         CLEAR     18  13  80 W6        30.26F WCI  10
6HR MIN TEMP:  17; 6HR MAX TEMP:  20;

BURLINGTON     CLEAR     13  11  89 W3        30.25S
6HR MIN TEMP:  13; 6HR MAX TEMP:  17;

KENOSHA        MOCLDY    17  13  84 W6        30.25F WCI   9
6HR MIN TEMP:  15; 6HR MAX TEMP:  20;

FOND DU LAC    CLOUDY    24  19  81 W6        30.25F WCI  17
6HR MIN TEMP:  22; 6HR MAX TEMP:  24; 6HR PCP: TRACE;

SHEBOYGAN      CLOUDY    25  21  85 NW6       30.24F WCI  18
6HR MIN TEMP:  23; 6HR MAX TEMP:  25;

WEST BEND      CLOUDY    23  19  86 NW6       30.24F WCI  16
JUNEAU         CLOUDY    22  19  87 N6        30.25F WCI  14
6HR MIN TEMP:  18; 6HR MAX TEMP:  22;

$$

LSZ147-162-181300-
LAKE SUPERIOR

STATION/POSITION TIME  TEMP    WIND        PRES    WAVE
                       AIR SEA DIR/SP/G            HT/PER
                 (UTC) (F)     (DEG/KT/KT) (MB)    (FT/S)
DEVILS ISLAND    1200   27      70/  6/  7 1027.8F
PORT WING        1100   26      20/  4/  5 1026.8F
SAXON HARBOR     1100   25      CALM  /  2 1026.4S
$$

LMZ867-665-643>646-181300-
LAKE MICHIGAN

STATION/POSITION TIME  TEMP    WIND        PRES    WAVE



USA.gov is the U.S. government's official web portal to all federal, state and local government web resources and services.